Wind_Speed
26 25 25 26 27 26 26 28 29 30 30 29 27 26 23 16 8 6 7 7 8 15 20 21 22 26 30 31 30 30 33 37 36 34 34 33 33 33 34 36 38 40 43 43 42 41 42 43 43 42 42 40 38 36 37 38 39 38 33 28 31 38 40 40 41 40 40 40 40 41 41 40 39 38
25 25 24 25 26 26 26 27 28 29 30 31 31 29 28 25 17 10 8 9 12 16 20 22 23 23 25 28 30 29 29 33 36 37 38 38 38 38 37 37 37 39 41 43 43 41 41 42 43 42 43 43 41 37 36 37 37 38 37 32 29 33 39 40 41 41 40 40 40 39 39 40 40 39
25 25 25 26 26 27 27 27 28 29 30 31 33 31 30 31 28 21 13 9 13 19 22 25 29 31 31 30 28 27 26 25 27 32 37 40 41 41 39 39 40 41 42 45 46 45 42 41 42 42 41 43 43 40 37 36 37 37 38 36 31 31 36 39 41 43 43 42 40 37 38 39 41 40
25 26 26 27 28 28 28 28 28 29 30 30 32 32 31 31 30 28 20 11 14 23 26 26 31 35 38 39 35 33 33 30 25 25 27 32 38 41 41 40 40 40 42 44 46 48 46 43 42 42 41 41 42 42 39 37 37 37 37 37 34 31 33 38 41 44 44 44 42 40 39 38 38 40
26 28 28 29 30 31 31 31 30 30 30 29 29 29 29 28 26 26 22 14 12 21 27 27 30 33 37 40 39 35 35 35 33 30 28 28 31 37 40 40 39 39 41 42 42 46 48 46 44 43 42 40 40 41 41 39 38 37 37 36 36 34 31 32 36 41 43 44 43 43 41 38 36 38
26 26 27 29 30 31 31 30 30 29 30 29 29 28 26 25 25 25 24 19 14 17 25 28 28 30 32 36 38 35 32 33 35 34 33 32 31 32 36 39 40 41 42 42 41 42 46 47 46 43 43 42 40 39 41 41 39 38 37 37 37 36 33 29 30 36 40 41 41 42 42 39 37 38
28 27 26 26 26 27 28 29 29 29 30 30 30 32 31 28 28 27 26 24 19 17 23 27 27 27 29 32 35 35 31 31 32 31 30 31 32 31 33 37 40 41 42 41 41 41 43 46 46 45 43 43 42 40 40 41 41 39 38 38 38 38 37 33 29 30 33 35 37 40 42 41 39 38
30 28 25 24 24 25 26 27 27 26 27 28 29 32 34 33 33 33 30 29 26 21 22 26 28 28 29 30 32 34 33 33 33 31 30 30 31 32 32 35 37 38 38 37 37 39 41 43 45 46 44 43 42 41 41 41 41 41 39 39 38 38 38 37 34 30 29 31 34 36 39 41 40 39
26 25 24 24 24 24 24 24 24 26 27 27 27 29 30 31 32 33 33 32 30 27 25 28 30 30 28 29 31 33 33 32 31 30 30 30 29 30 31 34 35 36 35 34 33 35 38 40 41 43 44 44 43 42 41 42 41 41 41 40 39 38 38 39 38 35 32 31 31 33 34 35 36 37
25 26 27 28 28 28 27 27 28 29 30 30 29 29 28 27 28 30 30 30 30 30 29 29 30 29 29 28 30 33 31 29 28 27 27 27 26 27 30 32 35 35 34 33 32 32 34 36 37 37 39 42 42 41 41 42 41 41 42 42 41 40 39 38 38 39 38 36 33 33 31 30 30 33
28 29 30 30 30 31 30 30 32 33 33 33 32 32 30 29 29 29 29 29 28 27 27 27 27 29 30 28 29 33 31 27 25 23 21 21 23 26 28 31 33 32 31 30 30 31 32 33 33 33 34 37 39 38 39 40 40 40 41 42 43 42 41 39 38 38 39 39 38 36 34 33 31 30
27 28 29 30 31 31 31 31 33 34 35 34 33 33 32 30 29 29 27 26 23 21 21 22 24 26 27 27 27 27 24 21 22 22 21 20 21 24 27 29 30 29 28 28 28 28 30 31 32 32 32 35 37 37 36 36 37 38 39 40 42 42 41 40 39 38 38 38 38 38 36 36 35 33
26 26 27 29 30 30 31 32 33 34 34 33 33 32 31 29 28 27 25 23 20 18 17 19 22 22 22 23 24 22 22 24 25 24 22 20 21 22 23 25 27 27 26 25 26 27 28 31 34 34 34 36 38 38 36 34 34 36 36 38 40 41 40 40 38 38 37 36 36 36 36 35 36 36
27 26 27 29 29 30 32 33 35 36 36 35 34 34 33 30 28 25 22 20 18 16 15 18 20 18 19 22 25 25 27 27 23 19 18 18 19 18 16 17 22 25 24 23 24 26 27 29 32 34 36 38 38 39 38 36 35 35 35 36 37 38 39 38 37 36 36 36 35 35 34 34 34 34
27 27 28 29 30 32 33 35 36 37 37 37 37 36 36 34 33 29 23 20 18 16 15 17 17 13 15 20 24 25 24 22 18 17 17 16 16 15 11 10 14 20 23 23 23 25 26 27 29 31 34 37 38 39 40 39 38 37 36 35 35 34 35 36 36 35 34 34 34 34 33 32 32 32
26 26 27 29 31 31 32 33 34 34 36 37 37 36 36 36 35 33 28 24 21 19 16 16 16 11 9 12 18 21 19 17 17 17 17 16 16 16 14 12 12 17 21 22 21 22 24 25 26 28 31 34 36 38 38 38 38 38 37 35 34 33 32 32 32 33 33 32 32 32 31 31 30 31
25 26 26 27 28 28 28 27 26 27 29 31 33 33 33 33 32 30 29 26 24 23 21 19 18 15 10 8 10 16 16 15 16 17 17 17 17 16 16 15 15 16 21 21 18 18 22 24 24 25 27 30 33 36 35 34 35 36 36 35 34 34 34 32 30 30 30 31 31 31 30 30 29 29
24 24 24 26 27 28 27 25 25 25 23 24 29 29 29 29 29 28 28 27 26 25 24 23 22 21 16 11 9 9 12 16 18 19 19 19 19 18 17 15 13 15 21 23 15 12 19 24 23 22 24 25 28 33 35 33 31 31 31 32 31 31 34 34 33 32 31 30 30 29 29 29 29 29
26 25 25 27 29 30 27 25 24 23 18 16 22 24 25 26 26 25 25 25 24 25 26 26 25 24 20 16 13 9 9 16 19 20 20 19 18 17 14 11 11 14 21 23 14 7 15 22 21 19 21 22 23 27 31 32 30 27 26 28 28 28 29 31 33 34 34 32 31 30 28 27 27 27
27 27 27 27 28 28 28 26 23 19 16 14 14 16 19 22 24 24 23 22 22 22 22 24 24 22 20 18 16 11 7 11 15 15 15 15 14 12 9 7 9 13 19 22 14 7 12 20 19 16 17 19 20 21 24 27 28 27 26 27 28 28 28 29 31 33 34 35 35 34 33 31 30 28
26 27 27 28 27 28 28 26 22 19 17 16 15 14 16 18 20 23 22 20 20 20 20 20 20 20 19 17 16 13 8 8 12 13 13 13 14 11 6 4 7 11 16 21 15 7 11 18 17 15 15 16 16 17 19 21 22 23 24 24 25 27 28 28 30 32 33 34 35 36 36 35 34 33
25 26 26 27 28 28 26 24 22 19 18 17 18 17 16 16 18 20 20 19 18 19 19 19 18 18 18 17 16 15 12 10 13 14 12 12 15 12 6 5 8 9 13 19 16 7 10 17 16 14 12 10 12 14 15 17 19 19 21 21 20 20 21 21 23 25 26 27 28 29 31 33 33 33
26 27 27 27 27 28 28 25 22 20 20 20 20 19 18 16 17 17 17 18 18 18 17 18 19 19 19 18 17 17 15 14 15 15 12 12 15 14 10 8 8 4 7 15 17 9 10 17 18 14 10 4 5 10 11 12 15 18 20 20 19 18 18 18 19 20 20 20 21 23 26 26 27 29
22 24 25 26 26 27 27 26 23 21 20 21 22 22 20 19 19 18 16 15 17 18 17 16 17 18 19 20 19 18 18 16 16 16 15 13 13 14 12 9 7 4 4 11 17 12 11 17 18 14 9 5 5 9 9 9 12 16 18 19 19 18 17 16 16 17 17 17 18 20 23 24 24 25
16 17 18 20 20 21 22 23 23 23 22 22 22 23 23 23 22 20 17 15 15 16 15 15 15 16 19 21 21 21 20 19 18 18 18 16 14 13 12 10 9 7 4 8 14 14 12 15 17 13 9 8 10 12 10 8 9 13 16 18 18 17 16 15 14 15 15 15 15 16 18 22 24 25
17 17 18 19 18 18 18 19 19 20 20 20 21 23 24 25 24 22 20 19 16 15 14 13 14 15 16 19 22 22 23 23 21 20 19 18 16 14 12 12 12 10 6 7 12 14 13 14 17 15 10 8 10 13 12 9 8 10 13 15 16 16 15 15 14 13 14 13 13 15 15 16 20 22
17 18 18 19 19 18 18 18 19 18 18 18 19 20 22 23 23 23 23 21 19 18 15 13 15 16 15 17 20 22 23 24 23 23 22 19 18 16 14 13 12 10 9 8 11 14 14 14 18 18 13 12 12 10 8 7 9 12 12 12 13 13 12 13 13 13 13 13 13 15 15 14 14 16
18 18 18 19 19 18 18 19 20 20 20 20 20 20 20 20 20 21 23 22 20 19 17 15 15 15 15 15 18 21 24 25 23 24 23 20 19 17 16 15 13 9 7 9 14 16 13 13 17 17 14 15 15 11 7 7 11 16 16 13 12 11 10 10 10 11 12 12 13 14 15 15 14 12
18 18 18 17 17 17 17 18 18 19 19 19 20 20 20 20 19 19 20 21 20 18 17 17 17 16 16 16 17 19 23 24 23 23 23 21 19 19 18 16 14 10 7 9 16 16 10 11 16 16 12 13 15 14 12 11 12 17 18 16 14 13 11 10 9 8 9 9 11 13 14 15 15 14
19 17 16 15 15 14 15 15 14 14 14 14 15 17 17 19 19 18 18 19 19 18 17 18 19 19 18 16 15 15 16 17 19 22 23 22 21 21 20 16 13 11 8 9 12 13 9 9 15 16 11 9 11 14 13 11 12 16 17 16 15 12 12 12 10 7 7 7 8 9 11 12 15 16
19 17 14 13 11 11 10 9 7 7 9 10 10 11 11 12 14 15 17 18 19 20 20 20 21 21 19 16 15 15 14 13 15 19 22 22 22 22 21 17 12 11 10 10 11 11 10 10 12 14 12 9 10 12 13 11 12 14 14 14 12 8 9 13 13 11 9 8 7 8 9 10 12 14
16 14 12 12 12 12 12 11 8 7 8 8 8 8 9 9 10 12 16 18 20 21 22 21 20 20 19 17 16 16 16 14 14 17 21 23 22 21 19 16 12 11 11 11 11 12 11 11 10 11 12 10 10 12 13 11 11 13 12 12 11 7 5 8 11 12 12 11 10 10 11 12 13 13
13 14 16 18 19 18 17 16 14 13 12 11 9 8 7 10 11 10 15 20 21 20 19 20 20 20 19 19 18 16 15 16 16 18 21 21 20 19 17 15 14 14 13 12 13 13 13 13 11 10 11 10 9 12 13 12 11 12 12 12 13 11 8 7 7 9 11 12 13 14 14 15 15 15
14 16 17 19 19 19 18 16 16 15 14 13 12 10 8 10 11 4 9 17 19 18 19 19 20 20 21 20 17 15 16 17 18 18 19 19 19 18 16 13 13 15 15 14 14 15 14 14 13 11 10 10 10 10 11 12 13 13 13 13 14 14 12 10 9 8 9 11 12 14 16 16 16 16
16 16 16 17 17 18 17 16 16 16 15 14 14 13 12 12 13 10 3 5 11 16 19 19 19 20 20 17 15 18 20 20 19 18 17 17 17 17 15 13 13 14 16 16 16 16 16 15 14 13 10 8 8 7 9 11 12 12 13 13 14 14 13 13 12 11 11 12 13 14 16 17 18 17
18 17 16 16 16 17 17 17 18 18 17 17 16 15 15 15 15 13 9 4 4 10 14 14 14 16 16 14 15 19 21 21 19 18 17 16 16 15 14 14 15 16 17 17 18 18 17 16 16 14 9 5 4 4 6 10 12 13 13 14 14 14 15 14 14 13 14 14 15 16 17 18 19 18
18 17 16 16 16 17 16 17 19 19 19 19 18 17 17 17 16 14 11 10 10 10 11 12 11 12 14 17 18 19 19 19 18 17 16 15 14 14 12 11 13 16 16 15 17 19 18 18 18 15 9 4 3 3 5 7 11 13 14 15 15 16 16 16 16 16 16 16 17 18 19 20 20 19
17 16 16 16 17 17 17 17 18 19 20 20 20 20 20 19 18 15 12 11 13 13 13 14 13 13 14 18 19 19 18 18 17 15 15 13 12 11 11 11 12 14 14 13 14 16 16 16 18 16 11 6 3 4 4 5 8 11 13 15 16 15 15 16 17 17 17 17 18 18 19 20 21 20
16 16 16 16 17 17 18 18 18 18 19 20 20 20 20 20 20 19 17 15 14 12 12 12 12 12 13 15 17 18 17 17 16 15 15 14 11 9 10 12 13 14 13 12 12 13 14 13 14 15 13 9 6 5 7 7 7 8 9 12 14 15 15 16 17 17 18 18 18 19 19 20 21 21
15 15 16 16 16 17 17 18 18 18 18 19 20 20 19 19 19 19 19 17 16 14 14 13 12 11 11 11 13 15 14 14 13 13 13 14 13 12 12 13 13 13 13 12 12 13 13 12 12 12 11 9 7 6 6 6 5 6 6 8 10 13 15 18 18 18 18 18 18 18 18 19 20 21
14 14 15 16 17 17 17 17 18 18 17 18 19 19 18 18 17 16 17 17 17 16 16 15 14 13 12 10 10 11 12 11 11 11 11 12 12 12 12 12 12 12 11 10 10 10 10 10 10 9 9 9 8 6 4 3 3 6 8 9 9 10 13 17 18 19 18 17 16 15 17 18 19 20
13 13 14 15 16 16 16 16 17 17 16 16 17 17 17 17 16 15 14 16 16 16 16 15 14 14 13 12 10 10 12 12 12 11 11 11 11 11 10 9 10 10 9 9 8 8 7 7 8 9 9 9 9 7 4 4 4 5 6 8 9 9 10 12 15 17 18 18 17 16 15 14 11 11
13 12 12 13 14 15 15 15 15 16 15 14 14 15 15 15 16 16 15 15 15 14 14 13 13 13 13 12 11 11 12 12 12 11 10 10 10 11 10 8 8 9 9 9 9 7 6 5 5 6 7 8 9 8 7 6 5 5 5 6 7 8 8 9 11 14 16 18 19 20 20 18 13 10
13 11 11 12 13 13 14 14 14 14 15 13 12 13 14 14 14 14 14 14 14 13 12 11 11 11 11 10 10 11 11 11 11 12 11 10 10 10 10 10 10 10 10 11 11 9 6 5 4 4 5 6 8 9 9 8 7 8 7 6 6 5 6 8 10 13 14 17 19 20 22 23 23 22
13 11 11 11 12 12 13 13 13 13 14 13 12 12 13 12 12 11 12 12 12 12 11 10 9 9 9 8 9 10 10 10 9 9 9 10 10 10 11 10 10 10 9 9 9 8 6 4 3 3 4 5 5 6 8 9 8 8 8 8 7 6 6 8 11 13 16 20 22 21 21 23 26 27
Wind_Direction
264 264 264 265 266 267 265 263 263 263 264 265 264 263 262 263 264 268 273 275 269 261 258 260 262 262 264 267 273 276 268 259 257 257 255 252 249 245 243 245 248 248 247 246 245 244 243 241 241 240 238 238 240 241 241 243 245 245 246 245 234 226 224 222 219 217 214 213 213 211 207 206 205 205
265 263 262 262 263 263 260 259 259 258 259 261 262 261 262 263 262 262 268 267 269 276 276 274 273 272 270 268 270 276 275 264 258 257 256 253 252 250 248 248 250 251 248 246 246 245 243 241 240 240 239 237 237 239 240 240 242 244 244 246 242 232 227 224 221 219 217 216 215 213 211 209 207 207
261 260 260 260 260 261 260 258 258 257 255 255 256 258 258 258 257 258 264 267 262 266 272 273 273 274 275 273 273 280 283 275 264 260 257 254 252 250 248 247 249 252 250 247 245 244 243 242 239 238 238 237 235 234 237 238 238 241 242 243 244 236 225 221 220 219 218 218 217 215 214 211 209 209
260 259 259 257 256 258 259 258 257 257 257 254 252 253 252 251 250 251 254 261 265 262 262 265 267 269 273 276 277 280 283 283 278 270 264 259 254 249 247 247 247 249 250 249 247 245 243 242 240 238 236 236 235 232 232 235 236 237 240 240 241 237 226 219 218 219 220 220 218 215 214 212 212 212
267 262 260 259 257 257 257 258 257 258 260 261 258 255 253 251 249 248 250 254 265 265 263 263 263 265 269 273 275 275 276 279 281 278 276 274 265 252 245 246 247 247 248 249 248 246 243 242 240 238 236 235 235 232 229 229 232 234 236 236 237 237 233 223 215 215 218 218 217 216 213 212 215 215
271 266 263 262 260 258 256 256 257 259 261 264 266 264 262 259 256 253 254 257 262 266 267 265 264 263 264 268 272 271 269 273 278 278 276 278 277 264 247 244 246 247 248 249 247 244 242 241 239 237 236 234 233 232 228 225 227 229 230 232 233 234 233 229 218 212 215 216 217 217 213 212 214 214
272 272 270 267 266 265 262 260 261 262 262 263 264 265 266 266 264 260 259 260 260 263 266 266 264 264 262 263 268 270 270 271 272 274 274 275 277 270 254 246 247 248 249 249 247 243 240 240 239 236 234 232 231 231 228 224 223 224 226 227 230 230 230 229 223 214 213 213 215 216 214 213 214 213
267 269 270 270 271 271 268 264 263 264 265 263 260 260 260 260 260 260 258 258 258 261 266 267 265 264 262 261 263 267 270 270 268 270 272 270 269 264 253 247 248 249 250 250 248 243 239 238 238 236 234 231 230 229 226 224 222 220 221 223 226 228 227 227 225 218 213 211 211 214 214 214 215 214
263 266 269 270 272 272 271 269 268 268 269 268 264 260 257 253 253 255 254 253 254 255 257 262 264 262 261 261 262 263 263 264 267 268 266 262 260 256 250 247 249 250 251 250 247 243 241 239 238 237 234 230 229 228 225 223 222 218 217 219 222 225 226 226 225 221 217 214 211 212 213 214 215 214
265 266 268 269 268 267 267 267 268 269 268 268 267 265 262 259 256 255 252 251 251 249 249 254 257 258 257 256 258 259 257 256 260 261 257 255 252 247 245 246 248 249 249 249 247 244 242 240 238 236 232 228 228 228 225 222 222 220 218 218 220 223 225 226 226 224 223 223 219 215 214 214 217 218
264 263 264 263 262 262 261 261 262 264 264 264 265 265 266 266 265 262 257 253 248 244 243 246 249 253 254 252 253 256 253 248 247 245 242 242 240 238 240 243 244 245 245 246 247 245 243 240 237 233 227 224 226 227 225 221 220 221 220 218 219 221 223 224 224 223 224 226 226 223 219 216 218 221
260 260 259 259 259 259 259 258 258 259 261 261 263 264 265 264 263 262 260 257 252 244 244 248 249 249 250 248 247 248 244 237 235 233 228 228 231 233 236 238 240 241 241 243 244 243 240 235 232 227 222 221 223 223 220 217 216 218 219 218 217 217 219 220 220 220 221 223 225 226 224 221 220 222
259 259 259 258 257 257 257 257 257 257 258 258 259 261 262 260 259 259 256 254 253 252 251 254 253 248 246 243 235 230 227 226 230 230 224 224 230 231 231 233 236 238 239 238 239 239 236 232 228 224 220 220 221 221 217 213 212 213 214 214 215 215 214 216 217 218 219 219 220 222 223 223 222 224
259 260 261 260 259 259 258 259 259 258 257 256 255 256 258 258 259 260 259 256 257 261 263 264 259 245 234 230 221 219 223 224 225 225 219 223 228 225 223 229 231 233 233 230 231 235 234 232 228 224 220 220 221 221 219 215 211 210 209 208 210 211 211 212 214 216 217 218 218 219 220 220 221 224
259 261 261 262 264 262 260 261 261 260 259 257 255 254 254 254 255 256 258 261 266 270 274 281 278 250 226 222 214 214 220 219 217 219 219 223 223 210 206 219 224 225 223 219 221 227 229 228 227 225 222 220 219 219 220 218 214 213 212 208 205 204 205 207 210 213 215 217 218 219 220 220 221 222
258 261 263 265 266 265 264 263 261 263 264 260 256 253 252 253 255 254 253 255 260 264 269 281 291 281 254 236 219 214 218 217 216 220 220 220 218 210 209 217 218 215 212 210 212 217 219 219 221 222 222 220 218 216 216 216 215 215 215 214 209 205 202 202 203 207 211 214 217 219 220 221 222 222
257 259 263 266 268 271 274 273 271 274 273 262 254 254 252 253 256 255 252 251 253 259 264 270 279 285 295 291 245 227 225 218 210 211 215 216 215 214 215 220 221 212 203 201 205 209 209 209 211 216 219 219 218 215 212 211 211 212 213 215 214 212 209 206 204 205 207 211 214 216 219 220 222 223
259 260 262 267 271 274 277 279 283 288 281 257 246 248 249 249 252 252 251 251 250 253 256 259 265 271 280 298 295 260 236 221 210 205 207 210 212 214 217 225 232 219 202 197 197 201 203 202 202 208 212 213 215 215 212 209 206 205 206 208 209 211 210 210 211 211 210 210 211 211 213 215 217 220
258 260 262 266 270 272 274 278 282 288 287 260 244 244 245 246 250 252 253 253 251 250 250 253 258 264 267 274 285 285 243 220 217 213 209 208 209 210 214 222 230 220 204 197 193 195 199 198 197 201 205 206 208 212 213 212 208 205 204 204 203 204 204 204 207 211 212 213 213 212 212 212 213 215
257 259 261 262 265 269 273 276 278 281 285 278 262 255 252 248 248 251 255 256 254 252 253 254 257 261 265 265 269 277 251 213 214 212 204 202 200 193 193 202 208 210 203 197 196 195 193 194 194 195 198 200 201 204 208 210 210 209 208 209 210 211 209 207 207 209 210 213 216 217 217 218 218 217
258 258 258 258 260 265 270 274 275 274 276 278 274 269 264 257 251 251 256 258 255 253 254 256 257 258 260 260 258 258 245 211 206 197 182 183 187 182 171 178 199 210 207 202 202 196 186 191 191 185 187 195 199 201 202 202 202 205 207 209 213 216 218 218 217 216 216 217 219 220 221 222 223 222
255 257 258 257 257 261 266 271 271 268 267 269 270 269 265 261 257 257 259 259 258 258 256 255 255 254 253 252 250 245 233 206 198 196 191 189 187 184 186 194 199 217 217 207 205 202 186 187 183 168 166 183 197 199 199 197 194 194 197 200 201 203 207 210 211 213 214 215 218 220 222 224 226 227
255 257 260 261 260 260 261 263 264 264 263 261 261 263 261 258 257 259 261 258 255 258 259 256 254 252 247 243 239 238 232 216 206 208 213 206 193 195 212 207 185 206 237 211 204 201 181 178 174 160 150 152 189 187 183 185 188 190 191 193 195 195 196 199 203 204 206 208 211 215 217 219 222 225
263 261 261 263 263 260 259 259 260 262 261 257 255 254 251 249 253 259 263 259 252 250 254 256 256 254 249 240 233 230 228 224 218 215 214 211 200 202 220 221 196 206 241 208 201 198 181 177 175 167 157 140 138 156 157 158 172 182 186 186 189 193 195 199 204 207 208 210 213 217 218 218 219 221
294 288 282 278 274 269 265 262 260 258 256 254 252 250 247 248 252 256 257 257 252 246 247 253 257 257 250 238 230 227 224 223 222 216 212 213 209 207 217 225 222 228 229 199 199 197 185 180 175 162 150 137 129 135 138 137 152 171 181 183 183 184 187 190 194 198 203 207 210 215 218 216 217 222
307 304 300 298 295 290 285 278 272 267 263 259 255 252 250 249 249 248 248 249 249 245 244 251 257 258 250 234 226 224 223 222 223 220 215 213 210 210 214 216 223 230 218 194 197 197 192 184 174 163 148 133 133 136 135 131 144 161 173 183 187 188 190 193 194 195 200 204 208 213 218 212 208 214
304 301 299 298 296 294 292 289 287 283 278 274 268 262 259 255 249 245 243 242 242 240 239 244 250 252 247 232 222 219 220 222 223 220 217 213 207 206 210 210 215 224 215 200 199 199 196 188 180 176 167 147 137 137 135 139 159 165 162 169 182 188 193 199 204 208 212 216 218 219 222 219 208 205
310 305 302 300 295 292 290 287 284 281 277 274 272 269 269 267 259 250 242 236 233 231 230 232 237 242 243 235 226 221 221 222 220 217 216 214 207 205 210 212 214 219 212 202 201 199 196 188 184 187 182 165 154 150 150 152 165 170 166 160 165 174 182 191 201 210 216 223 228 228 229 228 222 211
316 312 309 307 303 298 294 289 284 280 275 271 269 267 267 267 264 256 244 234 226 222 223 226 229 234 239 238 233 227 221 216 211 209 210 210 205 204 208 212 216 219 211 200 199 198 194 188 185 184 179 173 170 164 155 151 162 173 174 168 166 172 180 185 194 205 211 220 228 232 235 235 233 229
322 322 321 320 315 310 307 301 290 283 283 284 282 275 266 261 260 256 245 233 222 216 218 224 228 230 233 235 236 234 227 214 201 197 199 197 195 198 201 201 204 205 195 191 195 191 179 175 184 185 175 163 170 174 165 153 159 172 179 178 174 174 185 192 194 197 205 217 227 233 240 241 240 241
334 337 335 332 330 329 333 333 317 299 301 304 305 301 286 269 261 256 247 235 226 220 218 220 225 228 228 229 231 232 230 217 200 195 195 191 187 190 193 191 192 195 189 183 187 186 176 168 177 188 185 156 147 171 182 174 165 169 178 184 181 176 190 198 198 199 202 213 229 237 245 249 246 247
345 352 356 1 5 3 1 2 356 338 326 318 320 328 320 300 286 270 250 236 229 225 219 217 220 223 221 220 224 223 216 206 197 195 193 187 182 182 182 180 184 192 189 183 184 186 186 182 176 182 191 175 146 153 168 173 174 174 177 186 192 195 200 200 203 209 212 216 226 233 242 250 253 252
7 16 18 19 19 15 11 8 3 357 351 343 340 341 328 316 311 280 240 227 225 223 217 212 212 212 211 216 220 213 198 189 187 188 186 182 178 178 179 179 184 191 191 185 183 182 186 192 191 184 188 188 170 157 155 155 168 179 180 184 192 201 211 211 209 215 222 228 235 237 239 244 250 252
24 24 23 23 20 17 14 10 6 2 359 357 356 359 353 350 360 359 213 215 219 217 211 209 208 205 207 211 206 185 172 171 173 176 180 180 177 177 177 175 180 190 192 184 180 179 178 182 185 181 179 182 181 180 173 162 163 174 180 185 192 199 207 214 214 215 226 238 245 247 249 250 251 252
28 24 24 22 20 18 16 14 11 8 6 5 5 7 7 10 24 41 83 211 224 218 209 205 205 203 203 201 181 162 160 161 162 166 174 179 179 180 182 179 178 186 188 183 179 179 177 175 170 161 158 163 165 179 194 187 177 176 179 187 198 203 205 211 217 219 223 230 235 239 246 253 256 256
27 22 22 17 13 15 16 16 16 15 15 14 14 15 15 16 22 30 38 59 180 202 198 193 194 197 192 181 166 160 158 156 157 163 171 176 179 182 185 184 181 182 185 185 184 181 180 181 174 160 145 138 142 162 197 201 197 195 191 192 200 207 209 211 215 220 223 226 227 228 232 242 252 257
25 21 21 14 9 10 12 14 15 15 17 18 19 21 21 19 22 26 38 69 100 123 137 140 148 161 160 155 156 157 156 154 156 163 171 179 183 181 178 171 165 168 175 182 185 185 183 183 180 171 153 134 147 177 196 200 204 210 211 208 207 210 212 211 211 217 224 226 229 232 235 242 252 259
24 19 18 14 10 9 10 12 13 13 14 17 19 23 24 25 30 35 42 61 79 92 105 113 121 131 139 144 149 151 150 151 153 154 158 166 173 172 167 155 147 152 160 166 177 184 185 184 184 180 170 162 177 201 202 200 210 220 224 223 220 216 213 211 215 224 231 233 237 242 244 248 255 260
24 19 17 13 11 11 12 13 12 11 12 14 17 19 21 23 30 37 43 52 63 77 92 99 107 119 128 137 146 148 147 149 152 153 155 162 170 167 159 151 146 147 150 152 163 177 184 188 191 190 187 184 186 190 190 194 206 217 222 225 227 227 225 225 229 234 239 244 248 249 249 251 256 260
22 19 16 13 12 12 13 14 15 14 14 16 18 21 21 24 28 34 40 47 55 67 78 85 93 104 112 124 138 144 144 149 157 161 162 167 175 178 173 167 162 160 157 155 164 176 183 187 192 196 196 194 192 194 199 202 212 224 227 227 231 235 237 239 240 240 244 250 252 250 250 251 254 257
19 17 15 15 14 13 13 15 16 17 18 20 22 24 26 30 34 38 45 51 55 61 68 74 81 87 93 105 126 137 138 139 144 151 152 151 155 164 170 168 165 164 162 159 166 176 183 188 195 201 206 211 213 216 226 236 240 248 249 247 246 245 245 246 246 247 251 255 254 250 250 253 256 258
19 15 13 14 14 13 14 17 18 19 22 24 25 26 28 33 37 44 54 58 58 60 64 68 75 81 83 91 107 124 129 129 129 136 143 145 144 146 151 156 159 161 161 160 168 179 184 192 204 211 215 221 223 220 223 233 238 248 257 258 257 255 252 250 250 251 253 254 250 245 245 246 249 253
18 15 14 16 16 15 16 18 20 21 22 26 30 31 31 33 35 39 47 53 56 58 60 64 71 75 78 85 99 111 118 123 126 126 127 134 141 141 140 143 148 153 153 149 150 160 168 174 190 204 210 215 215 212 212 220 226 233 246 258 261 255 249 246 246 247 249 251 250 248 247 245 242 241
14 15 17 17 17 18 19 21 24 25 24 27 35 38 38 38 36 36 41 48 52 54 55 59 66 70 71 80 94 101 106 115 123 123 119 118 126 134 135 134 134 138 145 145 141 143 153 159 166 185 198 203 208 212 215 220 226 230 235 245 253 249 237 235 239 243 247 250 251 252 253 252 253 256
15 17 20 20 19 20 23 25 29 31 29 30 35 40 42 41 39 38 42 46 48 50 52 54 59 67 72 79 89 96 102 108 113 117 119 119 122 127 132 136 136 134 137 144 145 143 144 149 156 173 188 192 202 214 221 226 231 235 235 236 239 235 231 236 245 252 257 259 259 259 261 262 263 265
Height
794 793 793 793 792 792 792 792 792 792 791 791 790 789 788 788 786 783 781 777 773 772 771 770 770 770 770 769 769 769 769 769 770 771 771 772 772 773 775 776 778 779 780 781 783 785 787 788 789 789 790 791 793 796 799 801 803 805 807 810 812 814 817 820 822 824 826 828 830 833 835 838 840 843
791 791 790 790 790 790 790 790 790 790 789 788 787 786 785 785 784 782 779 776 773 772 770 768 767 767 768 767 767 767 767 767 767 767 768 768 768 769 770 772 774 776 777 778 779 781 783 785 786 786 786 787 788 791 794 797 800 802 804 806 808 810 813 816 819 821 823 825 828 831 833 835 838 840
788 788 788 788 787 787 787 787 787 786 786 785 784 783 782 782 780 780 778 773 771 772 770 768 767 765 765 765 764 764 764 764 764 764 764 764 764 765 766 767 769 771 773 774 775 777 779 781 782 783 783 784 784 786 789 792 796 798 800 803 805 806 808 811 814 817 819 821 825 828 830 833 835 837
785 785 784 785 785 785 784 783 783 782 781 781 780 779 778 777 776 776 775 771 768 769 769 768 766 765 763 762 762 761 760 760 761 761 760 761 761 760 761 762 764 766 768 769 770 772 774 776 778 779 780 781 781 782 784 787 791 794 796 799 801 803 804 806 809 812 815 817 820 824 827 829 832 834
782 781 781 781 780 781 780 779 779 778 777 776 775 775 773 772 772 772 772 769 766 765 766 766 764 764 763 760 759 759 758 757 758 758 757 758 758 757 757 758 759 761 763 763 765 766 769 771 773 775 777 778 779 779 779 781 785 789 793 795 797 800 801 802 804 807 810 813 816 820 823 826 829 831
778 778 777 776 776 776 776 775 775 774 774 773 772 771 770 769 768 768 768 767 765 762 762 762 761 761 761 758 756 756 756 755 754 754 754 755 755 755 754 754 755 757 758 759 760 761 763 766 768 771 773 774 775 776 776 777 779 784 788 791 793 796 798 799 801 803 805 808 812 815 819 822 824 827
774 774 773 773 772 772 771 770 770 770 770 769 768 767 767 766 765 765 766 765 764 761 759 758 758 757 757 756 753 752 752 753 752 751 751 751 751 751 751 751 751 752 754 755 756 757 758 760 762 765 768 770 771 772 773 773 774 778 783 786 789 792 794 797 799 800 801 804 808 811 815 818 820 823
771 770 770 769 769 768 767 766 766 766 766 766 765 764 763 763 761 761 762 762 762 760 757 755 754 754 754 753 751 749 749 749 749 748 748 747 747 747 748 748 748 749 750 751 753 754 754 754 756 759 763 765 766 768 769 770 770 772 777 781 784 787 790 793 796 798 799 801 804 808 811 814 816 819
768 767 766 766 766 765 764 763 763 763 762 762 761 760 759 759 758 757 758 758 758 757 755 752 750 750 750 749 748 747 746 745 745 745 744 743 743 744 744 745 745 746 747 748 749 750 751 751 752 754 757 760 762 763 765 766 767 769 771 776 780 783 786 789 792 795 797 799 801 804 807 810 813 816
764 764 763 763 762 762 761 760 759 759 758 758 757 756 755 755 755 754 753 753 753 753 751 749 747 746 746 746 744 743 744 743 742 741 740 739 740 741 741 742 742 743 743 744 745 747 748 748 748 749 752 755 757 759 761 762 764 765 767 770 774 778 781 784 787 791 794 796 799 801 804 807 810 812
761 760 760 759 758 758 757 757 756 755 754 754 753 752 752 751 751 750 748 748 747 747 746 745 744 742 741 741 740 738 740 740 739 739 738 737 737 737 738 738 739 739 740 741 742 743 745 746 746 746 748 750 753 756 757 758 760 762 764 766 769 773 776 780 783 786 789 792 795 798 801 804 806 809
757 756 755 755 754 753 753 752 752 750 750 749 748 748 748 747 747 745 744 743 743 742 741 740 739 737 736 736 735 735 736 736 735 735 734 734 734 735 735 736 736 737 737 738 738 740 741 743 744 744 745 747 749 752 754 755 755 757 760 763 765 768 771 775 778 782 785 788 791 794 797 800 803 805
753 752 751 750 749 749 748 747 747 746 745 745 744 743 743 743 742 741 740 739 739 738 737 736 735 734 732 730 731 731 731 730 730 731 731 731 731 732 733 733 734 734 735 735 736 736 738 739 741 741 741 742 745 748 750 751 752 753 756 759 762 764 766 770 774 777 781 784 787 790 793 796 799 801
749 748 747 746 745 744 744 743 742 741 740 741 740 739 739 739 738 737 736 735 735 735 733 732 730 728 725 724 725 725 725 725 726 727 727 727 728 730 731 731 731 732 732 732 733 733 735 736 737 738 737 738 741 744 746 748 749 751 753 755 758 760 762 766 770 773 777 780 784 787 790 792 795 797
745 745 743 742 741 740 739 738 736 735 735 734 734 734 734 734 734 733 733 732 732 732 730 729 727 723 720 719 720 720 721 722 723 724 725 726 727 728 729 729 729 728 729 729 730 730 732 734 735 735 734 735 737 739 742 745 747 749 750 752 755 758 759 762 765 769 773 777 780 783 786 788 791 793
742 741 740 738 737 735 733 732 731 730 729 728 728 728 728 729 729 729 729 729 729 729 728 726 724 722 720 718 717 717 718 719 720 721 723 725 726 726 727 727 726 725 726 727 727 727 728 730 732 732 732 732 734 736 739 742 745 747 748 750 752 755 757 759 762 765 769 773 776 779 782 785 787 790
738 737 736 735 733 731 729 728 728 727 724 722 722 723 723 724 724 724 725 725 725 726 725 723 722 721 720 719 717 716 716 717 719 720 722 723 724 725 725 724 723 723 724 725 725 725 726 727 729 729 730 730 731 733 736 739 741 744 746 748 750 752 755 757 760 763 766 769 773 776 779 781 784 786
735 734 733 731 729 727 726 725 724 723 720 718 719 719 720 720 720 720 721 721 722 722 722 721 719 719 719 719 717 716 716 717 717 719 720 721 722 723 722 722 723 723 723 723 724 724 724 725 726 727 728 728 729 731 733 736 739 741 743 745 747 749 751 755 758 761 764 767 770 773 775 778 780 783
731 730 730 728 726 724 722 722 721 719 717 716 716 716 717 716 716 716 717 717 718 718 718 718 717 717 717 718 717 716 716 716 717 717 718 719 720 721 721 721 722 722 722 722 722 723 722 723 724 725 726 727 727 729 731 734 736 738 740 743 745 747 749 752 755 758 761 764 767 770 772 775 777 780
727 727 726 725 723 721 719 718 718 717 716 715 714 714 714 714 714 713 713 714 714 714 715 714 714 714 715 715 716 716 715 716 717 718 718 719 719 720 720 720 721 721 721 721 722 722 722 722 723 724 725 725 726 728 729 731 734 736 738 740 742 744 747 750 752 755 759 761 764 767 769 772 774 777
723 722 722 721 719 718 716 715 714 715 714 713 712 712 712 711 711 711 711 711 712 712 712 712 712 712 713 713 714 715 715 715 715 717 717 718 718 718 719 720 720 720 720 720 721 721 721 721 722 723 724 725 726 727 728 729 731 733 735 738 740 742 745 747 750 753 755 758 760 763 766 768 771 774
719 718 717 716 715 714 712 712 712 712 712 711 710 709 709 709 708 708 708 708 709 709 709 709 709 710 711 711 712 713 714 714 714 715 716 716 717 718 719 719 720 720 719 719 720 721 720 721 722 722 723 725 726 726 727 728 730 731 734 737 739 741 743 746 748 750 753 755 757 760 762 765 768 770
715 714 713 712 712 710 709 709 708 709 709 708 708 707 707 707 706 706 706 706 706 706 706 707 707 707 708 709 710 711 712 713 713 714 715 715 716 717 718 718 719 720 719 718 720 720 720 720 721 721 722 724 726 726 727 728 729 731 733 735 738 740 743 745 747 749 751 753 755 757 759 762 764 767
712 711 709 708 707 706 705 705 705 705 705 705 705 705 704 704 703 704 704 704 704 704 705 705 705 705 706 707 708 709 710 711 712 713 714 714 715 716 717 717 718 719 718 717 719 720 719 719 720 720 721 722 724 726 727 727 728 730 732 734 737 739 741 743 745 748 750 751 753 754 757 759 761 763
710 708 707 705 704 703 702 702 701 701 701 701 701 701 701 701 701 702 703 703 703 703 703 703 703 703 704 704 705 706 707 708 709 710 711 712 713 714 716 716 717 717 717 716 717 718 719 719 719 720 720 721 722 725 727 728 729 730 732 734 736 738 740 742 743 745 747 749 751 752 754 756 759 761
708 706 705 703 702 701 700 699 698 698 697 698 698 697 697 697 698 699 700 700 701 701 701 701 701 701 702 702 703 704 705 706 707 708 709 710 712 713 714 715 716 716 716 716 716 717 718 718 719 719 720 721 722 724 726 728 730 731 732 734 735 737 739 740 742 744 746 748 749 751 753 754 756 758
706 705 703 701 700 699 698 697 696 695 695 695 694 694 694 694 694 696 696 697 698 698 699 699 699 699 700 700 700 701 702 703 704 705 706 708 710 712 713 714 714 715 715 715 715 716 717 717 718 718 719 720 722 724 726 728 729 730 732 733 735 737 738 740 741 743 745 747 749 750 752 753 754 756
705 703 701 700 698 697 696 694 693 693 692 692 691 691 691 691 691 692 693 694 695 695 696 697 697 697 698 698 698 698 699 699 701 702 704 706 708 710 711 712 713 714 714 714 714 715 716 716 717 718 718 718 720 722 725 726 728 729 731 733 735 736 738 739 741 742 744 746 748 749 751 752 754 755
703 701 699 697 695 694 693 692 691 690 689 689 688 688 688 688 688 689 689 690 691 692 693 694 694 695 696 696 696 696 696 697 699 700 703 705 707 709 710 711 712 713 713 714 714 715 715 716 717 718 719 719 719 721 723 725 727 728 730 732 734 736 737 739 740 742 744 745 747 749 750 752 753 755
701 699 697 695 693 692 691 689 688 687 687 686 686 685 685 685 685 686 686 687 688 689 690 691 692 692 693 694 695 695 695 697 698 699 700 703 704 706 708 710 711 712 713 713 713 714 715 716 717 718 719 720 720 721 722 724 726 728 730 732 734 736 737 739 740 741 743 745 746 748 749 751 752 754
700 698 696 694 692 691 689 687 686 686 685 685 684 683 683 683 683 683 683 684 684 685 686 688 689 690 691 692 693 694 694 696 697 698 699 701 702 704 706 708 710 711 712 713 713 714 715 716 717 718 719 720 720 722 723 724 726 728 730 732 733 735 736 738 740 741 743 744 746 747 748 750 751 752
699 697 695 693 691 690 688 687 686 685 684 684 683 682 681 681 681 681 681 681 682 682 684 685 686 688 689 690 691 692 693 694 695 697 698 699 701 703 705 707 709 710 711 712 713 713 715 716 716 717 718 720 721 722 723 725 727 728 730 731 733 734 735 737 739 741 742 744 745 746 747 749 750 752
700 697 695 693 692 690 689 687 686 685 684 683 682 681 680 680 679 678 678 679 679 680 682 683 684 686 687 688 689 690 692 693 694 695 697 698 700 702 704 705 707 708 710 711 712 713 714 715 716 717 718 720 721 722 723 725 727 729 730 731 733 734 736 737 739 740 741 742 744 745 746 748 749 750
700 698 696 695 694 693 691 690 688 687 685 684 683 681 681 679 677 675 675 677 678 678 680 681 682 683 685 686 687 689 690 692 693 695 697 698 699 701 703 704 706 707 708 709 710 711 713 714 715 716 718 719 721 723 724 725 727 729 730 731 733 734 736 737 739 740 741 742 743 744 745 746 748 749
701 700 699 698 696 695 694 692 691 689 687 686 684 682 681 679 677 675 675 676 677 677 678 679 680 682 683 684 686 687 689 691 693 695 696 698 699 701 702 703 705 706 707 708 709 710 712 713 714 716 718 720 722 723 725 726 727 729 730 731 732 734 735 737 738 740 741 742 744 745 745 745 746 748
703 702 701 700 699 698 696 695 693 691 689 688 686 684 682 680 678 677 676 676 676 677 678 679 680 682 683 683 685 687 688 690 692 694 696 697 699 700 701 702 703 704 706 707 708 710 711 713 714 716 718 720 722 724 725 726 727 728 730 731 732 733 734 736 737 738 740 741 742 743 744 744 745 746
705 704 703 702 701 700 698 697 695 694 692 690 688 686 684 682 681 679 678 677 676 677 678 679 680 682 683 683 685 687 689 690 692 694 695 697 698 699 701 702 703 704 705 706 708 709 711 712 714 715 717 720 722 723 724 725 726 727 729 730 731 732 733 735 736 737 738 739 740 741 742 742 743 745
707 706 705 704 703 702 700 699 697 696 694 692 690 689 687 685 683 681 680 678 678 678 678 679 680 682 683 683 685 687 688 690 692 694 695 697 698 699 700 701 702 704 705 706 708 709 711 712 713 714 716 718 720 721 723 724 725 726 727 728 729 731 732 733 734 735 736 737 738 739 740 740 741 743
709 708 707 706 705 703 702 700 699 698 696 694 693 691 689 688 686 684 682 681 681 680 680 681 682 683 683 684 685 687 688 690 692 693 695 697 698 699 700 701 703 704 705 706 708 710 711 712 713 714 715 716 717 719 720 722 723 724 725 727 728 729 730 731 732 733 734 735 736 737 738 739 740 741
709 709 708 707 706 705 703 702 701 699 698 696 695 693 692 690 689 687 686 685 684 683 683 683 684 684 685 686 686 688 689 690 692 693 694 696 697 699 700 701 702 704 705 707 708 710 711 712 713 714 715 716 716 718 719 720 721 722 723 725 726 727 728 729 730 731 732 733 734 735 736 737 738 738
710 710 709 708 707 705 704 703 702 701 699 698 697 696 694 693 692 690 689 688 687 687 686 686 686 686 687 688 688 689 690 691 692 693 694 696 697 698 700 701 702 704 705 706 708 709 710 712 713 714 714 715 716 717 718 719 720 720 722 723 724 725 726 727 728 730 731 732 733 734 735 736 736 736
711 710 709 708 707 706 705 704 703 702 701 700 698 697 697 695 694 693 692 691 690 689 689 689 689 689 689 690 690 690 691 692 693 694 695 696 697 698 700 701 702 703 705 706 707 709 710 711 712 713 714 714 716 717 717 718 719 720 721 722 723 724 725 726 727 729 730 731 732 732 733 734 735 734
712 711 710 709 708 707 706 705 704 703 702 701 700 699 698 697 696 695 694 693 692 692 692 692 692 691 691 692 692 692 692 693 694 695 696 697 698 699 700 701 702 703 704 705 707 708 709 710 711 712 713 714 715 716 717 718 719 720 721 722 722 723 725 725 726 727 728 729 730 730 731 732 732 731
712 711 710 709 708 708 707 705 704 703 702 701 700 700 699 698 697 696 696 695 695 694 694 694 694 693 693 693 693 694 694 695 695 696 697 697 698 699 700 701 702 703 704 705 707 708 709 710 711 712 713 713 714 715 716 717 718 719 720 721 722 723 724 725 725 726 726 726 727 727 728 728 728 728
712 711 710 710 709 708 707 706 705 704 703 702 701 700 700 699 698 698 697 696 696 696 696 696 695 695 695 695 695 695 695 696 696 697 697 698 699 700 701 701 702 703 704 705 706 708 709 710 711 711 712 713 714 714 715 716 717 718 719 720 721 722 723 724 724 725 724 723 724 725 726 726 726 726